Tracking 19706 objects as of 15-Jun-2019
HD Live streaming from Space Station
objects crossing your sky now

THORAD AGENA D DEB


THORAD AGENA D DEB is no longer on orbit


NORAD ID: 5350
Int'l Code: 1970-025KP
Perigee: N/A
Apogee: N/A
Inclination: N/A
Period: N/A
Semi major axis: N/A
RCS: N/A
Launch date: April 8, 1970
Source: United States (US)
Launch site: AIR FORCE WESTERN TEST RANGE (AFWTR)
Decay date: 2012-02-26

Note: This is SATELLITE DEBRIS
aabbcc
Your satellite tracking list
Your tracking list is empty




NASA's NSSDC Master Catalog

Two Line Element Set (TLE):
1 05350U 70025KP  12057.03350904  .49108785  35442-5  17389-1 0  9990
2 05350 099.6776 066.4302 0026806 203.8010 129.9138 16.24017440 98364
Source of the keplerian elements: AFSPC